Theta_e
334 331 331 330 328 325 322 321 318 318 316 316 317 317 319 321 318 316 316 314 312 318 325 312 313 313 315 318 322 323 324 323 324 319 317 320 318 318 323 321 324 326 326 326 324 319 314 310 313 320 323 326 323 324 327 328 328 330 332 333 334 335 337
332 330 329 329 323 323 320 317 316 315 314 314 313 315 316 317 323 315 314 313 311 315 328 316 316 316 314 315 314 315 316 319 320 321 321 317 318 316 317 316 318 319 322 322 322 322 316 312 312 314 316 321 322 324 324 325 328 331 332 331 333 335 336
329 324 324 321 319 318 318 314 314 314 313 313 312 312 313 318 320 318 313 312 312 313 326 315 313 314 315 315 314 313 313 313 315 320 317 316 317 318 318 318 316 317 318 320 320 319 319 319 313 313 315 315 314 320 323 325 326 327 328 331 332 334 335
323 322 321 319 317 314 316 313 313 313 313 311 313 314 313 314 315 320 314 312 315 327 326 316 314 314 314 314 314 314 318 312 311 311 317 315 317 316 316 317 317 316 315 315 315 317 317 314 313 313 315 317 317 317 321 324 324 326 328 331 331 333 334
323 322 322 319 316 314 314 313 313 312 312 313 313 313 314 315 317 318 324 320 322 317 316 316 315 314 314 314 313 313 312 311 311 317 313 312 312 313 315 317 317 318 318 317 318 319 318 315 315 314 314 317 317 318 319 322 325 326 328 329 331 333 335
323 323 322 320 317 314 313 313 312 311 312 313 313 313 314 315 319 317 317 317 318 320 319 315 315 315 314 314 314 312 312 311 312 312 313 312 312 312 313 315 317 317 318 319 319 320 320 319 317 313 314 317 314 315 318 321 320 324 326 329 331 334 333
321 321 321 319 316 316 314 314 314 312 312 312 313 313 315 315 318 318 319 316 316 316 319 317 317 316 315 314 314 313 312 313 312 311 312 312 312 311 312 313 313 315 316 318 319 319 318 317 315 314 313 314 314 313 316 319 322 318 323 327 329 329 332
319 320 320 319 315 314 314 314 314 314 312 313 313 315 317 316 316 316 317 317 316 316 317 318 320 318 317 317 316 314 314 313 312 313 312 311 311 311 311 312 313 313 314 315 318 318 320 318 317 316 315 310 310 312 311 315 317 319 318 323 327 330 332
322 320 320 320 317 315 314 314 313 313 313 313 314 315 315 316 315 315 317 317 316 315 316 316 315 316 316 315 315 315 314 317 314 312 312 312 311 312 312 312 311 311 313 314 316 317 319 320 320 319 318 315 310 306 310 309 314 313 320 321 327 329 332
321 319 318 318 316 315 314 313 312 312 313 313 313 316 314 315 314 314 314 315 315 315 315 315 315 315 314 315 316 314 313 314 315 314 314 313 313 312 312 312 312 312 312 313 314 317 317 319 320 320 320 317 315 310 308 307 308 310 316 321 319 326 330
320 320 318 317 315 314 313 313 312 312 312 314 314 316 315 314 314 321 314 314 314 314 315 314 315 314 314 314 314 314 314 314 314 315 315 314 314 313 314 313 313 312 314 313 313 314 315 316 318 318 319 320 319 314 313 309 309 313 314 321 324 325 329
318 318 317 317 315 313 312 312 312 313 313 314 317 316 315 314 314 315 315 315 314 315 314 313 314 313 313 313 314 314 314 313 313 313 313 314 314 314 313 312 313 312 313 313 313 313 315 316 316 316 317 318 319 318 315 313 308 314 319 315 321 327 326
316 316 315 315 314 313 313 313 313 312 313 315 314 314 314 314 314 313 313 313 313 313 313 313 314 314 313 313 313 314 314 313 312 312 313 314 313 314 313 312 313 313 313 313 312 313 313 313 314 315 315 316 318 318 318 315 312 311 317 318 319 320 325
314 314 313 313 314 313 313 315 313 313 314 313 313 313 313 313 313 314 313 315 314 313 313 312 312 312 312 312 311 312 312 311 311 312 313 312 313 313 313 312 312 312 313 312 313 313 313 313 313 314 315 316 316 317 317 315 312 312 314 322 322 322 325
314 314 313 312 313 312 312 313 312 313 312 313 313 313 312 313 314 313 313 313 313 312 311 311 310 310 310 310 310 310 310 310 310 310 310 310 311 312 312 311 311 312 313 312 312 312 312 312 312 312 312 314 314 315 317 316 315 314 311 315 319 322 322
312 312 312 311 312 311 311 311 313 313 313 313 314 313 313 313 313 312 312 312 311 311 310 310 310 309 309 309 309 309 310 309 309 309 308 309 309 310 310 311 311 312 312 312 312 312 313 312 312 312 312 313 312 313 315 317 315 312 312 312 317 319 320
312 311 311 312 312 312 312 312 314 314 314 313 312 314 313 313 312 312 311 311 310 309 309 309 309 309 309 309 308 308 308 308 308 309 308 308 308 309 309 309 310 310 311 311 311 311 312 312 311 312 311 312 312 312 313 314 316 314 314 312 315 317 320
311 311 312 312 312 313 312 313 313 313 313 312 312 312 314 312 310 309 309 309 309 308 308 308 308 308 309 309 308 308 308 308 308 308 308 308 311 309 309 309 309 309 310 309 310 310 310 310 310 311 310 311 312 312 312 313 314 315 314 312 313 317 322
312 312 312 312 312 312 313 312 312 313 313 312 312 311 311 310 310 308 308 308 308 308 308 308 308 308 308 308 308 308 308 308 308 308 308 308 308 309 309 308 309 309 308 308 308 309 309 309 310 309 310 310 311 311 311 312 313 313 314 314 314 314 317
312 312 312 312 311 311 310 310 310 310 313 311 310 309 308 307 310 309 308 308 308 308 308 308 307 307 307 307 307 307 307 307 307 307 307 307 307 307 308 308 309 309 308 308 308 308 309 309 309 309 311 310 311 311 310 311 312 311 312 312 312 314 315
308 309 309 308 308 307 307 306 306 308 310 307 307 306 306 306 307 308 308 307 307 308 307 306 306 306 306 306 307 306 306 306 306 306 307 307 307 307 307 308 308 309 309 309 308 308 308 308 308 308 310 311 311 310 310 311 311 311 311 311 312 312 314
303 303 303 302 302 303 303 304 304 305 305 306 307 307 306 305 305 305 306 305 305 305 306 306 306 306 306 305 306 305 306 306 306 306 306 306 306 307 307 308 308 308 310 313 313 313 311 311 308 307 308 310 310 310 310 311 311 311 311 311 310 312 312
302 302 302 302 302 303 303 304 304 303 304 304 304 306 305 306 305 304 303 303 304 304 304 305 307 308 307 308 306 305 305 305 305 305 306 306 306 306 306 307 309 312 312 313 314 312 310 310 312 312 309 308 309 310 310 310 310 310 309 308 308 309 309
303 302 303 303 303 303 303 303 303 303 304 303 304 305 305 303 303 303 303 303 303 303 304 305 306 300 299 301 307 307 306 305 305 305 305 305 305 306 306 306 307 310 312 314 314 311 308 307 307 307 310 313 313 311 310 309 309 310 309 308 309 310 310
302 302 302 302 302 302 303 303 303 302 303 302 303 304 303 302 301 302 302 302 302 303 304 305 299 299 299 298 302 306 306 306 306 305 305 305 305 305 306 306 307 307 308 309 309 310 310 309 306 305 305 305 306 308 309 311 309 308 309 308 308 309 309
302 302 302 303 303 303 303 302 302 301 300 301 301 301 301 301 300 300 301 300 301 302 303 302 298 299 298 297 297 302 304 304 305 305 305 305 305 305 305 306 306 306 306 311 312 311 310 310 309 307 307 306 306 304 299 298 303 311 309 308 306 306 308
302 302 302 303 303 302 301 300 301 301 301 301 300 300 300 299 299 300 300 300 300 301 301 302 298 298 298 297 297 298 302 302 303 303 304 305 305 305 305 305 305 305 307 308 309 309 309 310 309 310 310 310 309 310 307 303 301 301 307 309 307 306 309
302 301 302 301 301 301 300 299 298 299 300 299 298 298 298 298 299 301 300 300 300 300 300 300 297 297 296 296 296 298 301 302 302 302 303 303 304 304 304 304 305 304 305 306 307 308 307 307 307 307 307 307 307 307 307 308 308 309 309 308 309 309 310
301 301 301 300 299 299 298 298 298 298 301 299 299 299 299 299 299 299 299 299 299 299 300 297 296 296 296 296 296 301 301 301 301 302 302 303 303 303 304 304 304 304 304 305 307 303 306 308 306 305 305 305 305 306 307 309 305 306 311 310 310 310 311
300 299 299 298 297 297 297 297 297 299 298 297 297 297 297 298 299 298 299 299 299 298 299 298 295 295 295 295 296 300 300 301 301 301 302 303 303 304 304 304 304 304 304 304 303 298 297 304 305 305 304 304 305 305 305 307 304 300 300 300 301 301 301
298 299 298 297 297 297 297 297 297 299 297 296 296 296 297 298 298 299 299 298 298 298 298 299 296 295 295 295 298 300 301 301 301 301 302 303 304 304 304 308 308 305 304 304 300 297 297 302 304 304 303 303 303 303 304 306 307 307 301 299 298 298 298
297 297 297 297 297 297 297 297 299 299 298 297 297 298 299 298 298 298 298 298 301 300 299 300 297 295 295 295 298 301 301 301 301 301 302 302 304 304 304 306 307 307 307 306 299 297 297 303 304 304 303 303 302 302 304 306 306 305 306 306 307 306 304
299 298 297 297 297 297 298 298 297 297 297 297 297 297 297 297 296 297 298 298 298 299 299 300 301 297 296 296 296 301 302 301 301 301 302 302 301 303 303 303 305 300 298 298 298 297 296 297 303 304 304 303 302 301 305 305 306 306 306 307 307 308 308
297 297 297 297 297 298 298 297 297 296 296 296 296 295 295 296 296 296 296 297 298 299 300 300 301 297 296 296 296 298 301 302 302 301 301 301 301 301 301 302 303 302 297 297 297 297 297 296 298 304 304 304 304 305 305 305 306 308 306 307 307 307 307
297 297 298 298 296 296 296 297 296 296 296 295 294 294 295 296 295 296 297 298 299 300 301 303 302 299 296 296 296 296 300 302 302 300 299 298 298 298 299 299 300 300 297 296 295 295 295 295 295 302 303 299 298 297 303 306 306 306 305 305 305 305 306
297 297 297 298 296 295 295 295 295 295 294 294 294 293 294 294 295 296 297 298 299 300 301 303 301 301 298 295 295 294 294 296 294 298 297 296 296 297 298 298 300 300 295 294 294 294 294 294 296 298 296 295 296 295 299 303 304 304 304 304 304 304 304
296 295 295 296 295 294 293 294 294 295 294 294 293 293 294 295 295 296 296 297 299 300 300 300 298 297 297 294 293 293 292 292 292 295 295 295 295 295 295 296 297 294 294 294 293 293 293 294 296 294 294 294 294 296 300 301 302 302 302 302 302 303 303
Wind_Speed
9 8 7 6 5 6 6 6 5 4 6 7 7 6 6 6 6 6 6 5 5 4 3 5 5 4 4 3 4 4 4 3 3 3 1 1 2 2 1 2 3 3 3 5 5 5 7 9 9 6 4 3 7 6 5 6 7 6 7 7 7 6 5
5 6 5 4 6 5 7 4 5 5 5 5 7 7 6 6 5 6 5 5 5 4 4 5 4 5 5 5 4 4 4 3 3 3 2 2 3 2 1 1 2 2 2 3 5 4 4 6 9 6 10 9 3 4 5 7 5 4 6 8 7 6 6
4 5 5 6 5 5 7 6 5 6 6 6 5 6 6 6 6 5 5 4 4 5 3 5 5 4 4 4 5 5 5 4 3 4 4 3 2 2 2 2 1 2 2 1 1 2 4 5 8 9 6 9 12 3 6 5 7 7 7 6 7 6 5
6 8 7 5 5 5 7 6 6 6 6 7 6 5 6 6 5 4 5 5 4 4 4 4 4 3 3 3 4 4 3 4 4 5 3 2 2 2 3 3 3 3 3 3 4 3 3 5 6 7 5 5 7 13 4 5 8 8 5 5 7 6 5
8 9 11 11 10 10 9 9 7 5 6 5 5 6 5 5 5 4 5 4 3 3 3 3 3 4 3 2 3 3 3 4 4 3 2 3 4 4 4 3 3 3 3 4 4 4 3 4 5 8 7 5 6 4 8 8 5 6 6 7 6 5 6
10 10 11 12 11 10 9 8 7 7 6 5 5 6 5 6 6 6 4 3 3 3 3 3 3 4 3 3 3 4 4 5 6 5 4 5 5 5 6 4 4 4 5 5 4 4 4 5 5 7 6 6 6 5 5 7 4 3 6 4 4 5 8
8 9 9 10 9 9 8 8 7 5 7 8 7 7 7 6 4 4 4 4 4 3 3 4 4 4 4 4 4 4 6 6 5 5 5 6 5 6 4 5 5 5 5 5 5 4 4 3 4 5 5 5 6 6 3 3 4 5 2 3 5 7 7
8 8 8 8 9 9 9 11 11 10 9 7 7 6 5 5 5 4 4 4 4 5 4 4 4 4 4 3 4 5 5 5 5 5 5 6 6 7 6 6 6 5 6 6 4 6 4 5 5 4 4 8 6 4 5 2 5 5 7 4 5 5 6
6 7 8 7 8 7 7 8 10 9 8 7 6 5 5 6 6 6 5 6 5 5 5 5 5 4 4 4 5 4 6 4 5 6 6 5 6 7 7 6 4 6 6 6 5 5 5 5 5 5 4 4 7 9 4 6 1 3 4 4 3 4 2
8 9 9 9 6 3 4 5 6 7 7 7 7 6 6 6 6 6 6 6 5 5 5 5 5 5 5 5 5 5 6 6 5 6 6 6 6 6 5 7 6 6 6 5 5 5 6 4 5 4 6 6 5 6 8 6 5 5 1 2 4 3 3
9 10 9 8 7 8 8 7 6 6 7 7 7 6 6 6 6 6 6 5 5 5 6 5 5 6 5 5 6 6 6 5 5 5 5 6 6 5 6 6 6 6 6 6 6 6 6 6 5 5 5 5 6 7 5 7 8 2 6 3 4 4 4
10 10 9 9 9 10 10 9 8 8 6 6 6 5 5 5 6 6 5 6 5 6 5 6 6 6 6 5 5 5 5 5 6 6 6 5 6 5 6 7 6 6 6 7 6 6 6 6 6 5 5 4 5 7 8 7 10 3 2 5 4 4 5
13 13 11 11 10 11 10 9 9 7 8 7 6 6 7 7 7 7 6 6 6 5 6 6 6 6 5 5 5 5 6 5 5 6 6 5 4 5 6 7 7 7 7 6 6 6 6 6 5 5 5 5 5 6 6 7 8 12 6 6 7 8 6
11 9 8 8 9 9 8 8 8 7 5 7 7 7 7 7 6 6 6 6 6 6 6 6 5 5 5 6 6 6 5 5 6 6 6 6 6 6 6 7 7 7 6 7 6 6 6 6 5 5 5 5 5 5 5 7 8 9 9 4 5 6 5
3 4 6 5 5 5 5 6 6 4 7 7 6 7 6 5 5 6 6 7 7 6 6 6 6 5 6 6 6 5 5 6 6 7 6 7 7 6 6 7 7 7 7 7 6 6 5 5 5 5 5 5 5 6 5 5 5 6 11 7 5 5 7
3 4 5 5 6 6 6 6 4 6 5 4 4 5 6 5 6 7 7 7 7 6 6 7 6 6 6 7 7 6 6 7 7 7 7 8 8 7 7 6 7 7 5 6 6 6 5 6 5 5 6 5 6 6 6 6 5 6 8 10 5 5 5
5 4 5 5 6 5 4 4 4 5 5 4 5 5 6 7 7 7 7 6 6 7 7 7 6 6 7 7 7 8 8 7 7 8 8 8 8 7 8 7 7 7 7 7 6 6 5 5 5 5 6 5 5 6 5 5 6 6 6 9 6 5 5
3 5 6 6 7 7 7 6 5 6 6 6 5 4 4 5 6 6 6 7 7 7 7 7 7 7 7 7 8 8 8 8 8 8 9 9 8 8 8 8 8 8 7 7 6 6 5 6 5 5 5 5 6 5 4 5 5 5 7 9 9 5 5
6 7 7 7 7 7 6 6 6 5 6 6 5 5 6 6 6 7 7 8 7 7 7 7 7 8 8 8 7 7 7 8 8 9 9 9 9 9 8 9 9 8 8 8 8 7 6 8 6 6 6 6 6 5 5 5 5 5 6 7 8 7 4
5 5 5 4 3 3 3 3 3 3 1 2 3 5 5 5 4 5 6 5 5 6 6 6 6 7 7 7 8 8 8 8 9 8 9 10 9 9 9 9 9 8 9 9 8 8 8 8 7 8 8 7 6 6 6 6 5 5 5 6 6 7 6
4 4 4 5 6 6 7 6 6 5 5 5 2 1 2 3 3 2 2 3 3 4 5 5 6 6 7 7 7 8 8 8 9 9 10 10 9 10 10 10 9 9 9 10 10 9 9 8 7 8 7 7 7 7 7 6 5 5 5 5 5 6 4
8 8 8 8 7 7 7 6 6 6 6 5 3 3 1 1 3 4 4 3 4 5 5 6 5 6 6 8 7 9 9 9 10 10 10 10 10 9 8 8 9 9 9 13 14 12 11 9 8 9 8 8 8 7 7 5 5 5 4 5 5 4 5
7 7 7 7 6 6 7 7 7 6 5 4 3 2 3 2 2 3 4 4 4 4 4 4 6 10 10 7 8 7 8 8 8 9 9 10 10 9 9 9 8 14 16 17 17 17 17 16 15 11 9 9 9 8 7 7 6 5 5 6 6 5 6
6 6 5 6 6 6 6 4 3 2 2 3 3 3 1 3 3 3 4 4 5 4 4 4 8 10 11 13 10 8 8 8 9 9 9 10 11 9 9 9 8 11 14 15 14 17 16 16 16 17 18 15 11 9 8 8 7 6 6 6 6 6 6
6 5 5 5 4 3 2 1 0 2 3 4 4 4 5 5 4 4 4 5 5 6 5 7 11 11 12 13 11 9 7 8 8 9 9 9 9 9 10 9 8 7 8 9 9 10 13 15 16 16 17 17 16 15 13 10 8 7 7 7 7 8 7
3 3 2 3 2 2 1 2 3 2 4 5 4 6 6 5 5 5 5 7 7 6 6 8 12 13 13 14 14 12 7 7 8 10 10 9 9 9 8 7 8 7 7 14 13 10 9 9 13 15 15 16 16 15 15 15 14 12 9 9 9 10 9
3 4 3 3 3 3 3 4 5 5 5 5 5 6 5 6 6 6 6 7 8 8 8 8 12 13 14 16 16 14 11 10 10 10 10 11 10 9 8 8 7 8 7 8 8 9 8 8 7 8 9 9 9 12 15 16 17 18 14 11 12 11 8
4 3 3 4 4 4 5 4 5 5 5 6 6 7 7 7 6 7 7 8 7 8 6 10 13 15 15 16 17 14 10 10 8 8 8 8 8 8 8 8 9 9 8 8 7 9 8 8 8 8 9 10 12 12 12 12 11 8 8 8 11 11 10
5 5 6 5 5 5 5 6 6 6 6 6 6 6 6 6 7 8 8 8 8 9 8 11 13 15 16 15 16 9 10 9 9 8 8 7 7 7 8 8 8 8 8 8 10 14 13 10 9 10 11 12 12 11 11 11 13 14 11 9 9 10 10
5 5 5 5 5 5 5 6 6 5 7 6 7 7 7 7 6 7 8 7 9 9 9 10 14 15 16 17 12 7 8 8 9 10 9 8 8 8 8 8 8 8 9 9 11 14 15 14 11 12 11 12 10 9 10 10 14 16 17 17 17 18 17
6 5 4 5 5 5 5 5 6 5 7 7 7 7 7 6 6 6 7 9 9 10 10 11 15 16 16 17 13 9 8 8 9 9 8 8 8 8 10 17 16 12 11 11 14 16 16 14 10 11 11 11 12 11 11 9 8 9 15 18 18 18 17
5 4 4 5 5 6 6 6 6 5 6 6 8 6 6 6 7 6 7 9 14 14 11 11 15 16 17 17 13 7 7 8 9 8 8 9 8 7 8 11 19 18 16 13 15 17 18 16 14 12 13 12 13 13 11 10 10 10 10 9 8 10 11
4 4 6 6 5 6 5 5 6 6 6 5 6 6 6 7 9 7 7 9 9 10 11 10 10 14 14 15 15 9 7 8 8 9 9 10 9 8 9 9 11 16 18 20 18 16 17 19 17 13 11 12 12 14 10 11 11 9 10 10 10 9 9
5 5 5 5 5 5 5 6 7 7 8 7 7 8 8 7 8 9 8 9 9 9 8 9 10 13 14 15 15 13 9 9 9 9 10 11 12 14 12 12 12 15 17 18 19 20 20 18 17 12 13 11 13 12 11 11 12 18 14 13 12 10 8
4 5 5 5 6 7 6 6 6 7 7 7 9 10 9 8 9 9 8 8 8 9 10 14 10 10 12 13 12 12 9 9 9 11 13 14 14 13 12 13 13 15 16 16 15 15 16 17 18 12 14 17 17 16 13 12 11 11 11 12 12 12 10
5 4 5 5 6 8 7 6 7 6 8 8 9 10 9 9 9 9 9 8 7 8 8 8 10 10 10 9 9 9 10 11 10 8 10 14 14 14 13 14 14 18 16 17 17 18 18 19 18 16 18 17 18 17 16 12 12 14 14 14 14 13 10
5 5 6 7 7 8 8 7 7 6 8 8 8 10 9 8 9 9 9 8 7 8 7 7 7 8 8 8 9 12 14 15 15 11 12 14 13 13 16 14 14 16 16 18 19 18 18 17 14 18 18 20 19 18 11 11 11 14 15 14 16 14 13
Wind_Direction
187 179 173 168 154 152 151 156 157 168 134 135 137 139 142 141 136 132 128 128 124 143 151 151 148 150 113 112 123 138 136 137 150 147 199 199 136 269 346 324 309 307 295 278 275 308 300 298 308 309 269 347 328 321 307 317 315 318 321 322 314 305 295
183 158 151 135 145 150 148 157 154 161 135 135 140 145 147 144 144 143 142 143 142 162 152 136 125 135 137 142 146 148 160 155 154 164 164 184 173 224 26 348 330 301 289 276 280 266 280 305 298 308 319 314 251 273 328 307 294 295 310 308 304 299 295
140 108 126 142 145 155 157 171 168 161 149 140 143 145 147 150 141 145 151 148 156 161 143 146 141 140 150 161 175 172 158 142 176 184 190 174 167 170 194 198 211 286 308 309 266 288 281 257 284 303 311 318 320 308 322 311 323 319 306 301 298 296 293
157 140 137 141 143 160 171 177 176 177 165 164 156 158 150 145 142 158 152 183 158 144 132 146 168 183 183 183 175 167 167 170 180 197 181 167 164 174 200 203 207 205 213 226 248 263 260 282 298 295 303 292 290 306 310 320 319 310 296 290 296 300 298
175 163 166 169 180 177 177 179 186 172 176 163 161 157 150 146 154 157 170 150 136 139 180 175 186 194 188 157 166 179 209 214 223 217 192 215 213 199 211 192 214 209 217 221 235 229 224 265 274 288 295 303 287 255 300 307 269 273 303 295 291 294 290
186 176 176 181 181 177 176 174 166 179 175 162 183 175 175 172 171 166 163 161 182 193 198 176 213 203 197 190 196 212 222 237 235 228 236 239 235 234 247 209 196 191 216 225 222 227 243 254 263 285 282 280 286 297 300 309 305 300 285 288 297 287 300
180 182 189 182 182 183 174 165 174 191 192 189 181 189 182 173 167 189 184 194 199 195 197 206 216 218 199 203 214 219 230 236 233 230 230 241 238 238 225 244 226 211 228 227 218 209 230 233 254 259 283 281 286 290 281 287 302 328 316 305 291 293 290
175 180 190 184 181 184 173 176 179 183 191 189 182 191 168 161 185 190 199 196 197 205 208 215 223 221 212 213 221 228 244 240 237 234 240 234 245 244 237 225 241 232 235 233 196 225 217 222 230 246 260 299 299 271 289 254 292 261 278 287 288 287 283
187 187 192 198 189 185 179 183 184 185 189 174 182 169 180 169 185 195 198 206 203 203 207 212 218 220 212 206 231 230 243 233 233 240 246 245 250 251 250 250 230 246 241 240 219 230 216 221 224 240 236 252 291 302 298 294 238 274 261 275 294 272 309
193 194 199 205 184 153 191 202 191 190 172 172 177 183 173 188 192 192 194 206 205 206 207 212 210 215 206 209 223 226 235 238 225 240 242 235 242 247 247 246 239 251 255 243 242 230 231 225 224 225 226 235 237 275 303 298 297 291 277 293 311 290 300
201 203 202 186 166 188 206 196 189 180 187 181 178 179 177 186 195 193 194 207 208 200 211 210 209 214 205 214 220 224 232 228 231 236 232 229 239 236 239 245 234 242 245 240 241 236 230 225 226 224 225 230 226 242 261 293 294 235 283 251 223 283 311
202 207 203 188 183 191 199 189 188 194 179 178 176 177 171 186 191 199 198 209 202 210 208 214 209 212 204 216 219 226 228 213 219 236 239 224 233 226 235 246 247 246 246 245 239 241 233 226 230 225 228 215 223 228 246 262 290 272 196 296 282 251 291
194 195 195 186 189 192 193 186 187 186 190 175 182 174 181 192 195 195 199 205 210 212 214 220 211 212 201 213 219 219 226 209 215 228 244 231 229 227 234 242 245 247 249 241 243 239 239 233 226 227 226 218 220 223 230 246 252 279 264 270 282 289 266
195 189 186 189 190 192 186 186 189 192 165 184 179 183 192 197 194 196 194 199 207 211 211 218 209 205 202 217 223 226 235 222 225 234 231 244 232 227 230 236 243 247 243 246 246 247 243 239 227 228 229 221 228 224 215 234 256 275 286 210 249 273 286
198 184 178 177 186 186 185 191 195 177 185 201 181 187 190 193 188 193 196 203 204 202 204 211 212 202 214 224 236 220 224 224 228 238 231 243 243 239 233 236 245 246 237 238 243 249 245 248 244 240 236 227 232 244 217 239 243 260 283 288 276 275 285
179 183 180 180 186 189 196 202 196 192 203 199 161 175 191 189 200 195 202 200 193 200 209 217 220 211 220 223 228 230 223 219 226 234 234 238 238 240 242 238 242 242 239 236 231 239 237 240 234 237 245 234 239 232 232 221 238 261 272 281 269 271 271
168 181 191 199 200 203 198 196 177 188 194 169 181 207 202 201 200 200 193 194 199 210 215 221 221 214 219 217 221 225 227 225 225 232 235 238 238 232 232 239 238 236 238 242 244 242 235 231 230 234 240 247 242 252 242 236 226 245 268 280 277 261 282
246 212 208 200 211 205 206 203 196 194 195 202 199 191 220 202 191 186 192 201 212 214 221 219 220 221 221 222 224 227 229 229 229 230 232 230 231 228 229 230 237 235 230 232 235 237 234 233 227 223 232 238 242 239 248 238 239 230 249 264 279 260 260
246 247 236 224 220 218 216 207 213 216 198 200 193 203 204 199 189 198 206 213 216 224 223 222 222 224 225 226 229 232 232 234 235 231 232 229 227 228 228 229 229 226 225 222 232 230 229 237 238 234 224 232 234 236 239 247 237 240 240 255 271 286 250
227 249 275 289 311 308 305 313 305 291 300 166 193 195 206 204 237 225 232 236 237 237 238 231 232 235 238 239 239 238 238 239 239 237 235 233 232 229 228 228 231 229 229 229 232 234 235 239 237 242 232 225 225 219 231 235 234 238 240 253 268 269 274
11 12 16 20 29 30 34 39 35 30 45 50 44 354 328 281 280 283 293 295 288 283 263 249 245 243 242 243 244 245 242 242 244 242 242 240 238 235 230 228 227 229 228 232 234 235 231 239 236 246 237 227 221 223 227 230 233 233 243 245 249 275 268
47 52 51 52 51 49 51 49 52 49 46 48 39 48 116 42 349 348 318 277 256 251 251 252 249 249 252 249 244 249 247 246 244 247 246 244 242 239 237 234 234 231 230 234 231 231 230 222 232 241 239 224 227 223 229 223 227 226 233 244 255 256 269
61 63 62 56 50 55 48 37 35 33 30 24 29 3 29 35 237 240 265 267 265 259 260 260 253 251 251 253 252 249 250 247 246 245 247 248 245 241 239 237 236 235 236 237 239 240 241 238 236 234 233 225 230 225 223 225 222 218 228 241 246 247 263
70 62 67 65 55 50 50 54 53 18 15 360 332 303 249 240 248 234 243 256 268 263 256 254 257 258 260 260 260 260 252 253 247 246 244 244 246 240 238 233 232 239 241 242 244 245 246 246 245 243 240 231 220 219 228 228 230 218 229 237 242 233 237
71 70 76 77 90 107 104 92 64 313 293 272 255 252 258 253 256 253 249 246 247 246 253 257 262 266 266 266 262 258 254 253 252 248 243 240 241 238 237 235 231 227 232 236 240 247 250 250 249 246 242 240 238 232 228 228 237 236 223 239 239 237 238
102 100 137 151 161 140 146 233 260 260 257 255 257 247 243 246 251 249 252 253 250 244 248 243 249 258 262 262 262 260 250 248 246 249 247 242 238 235 231 231 237 232 235 239 243 245 244 250 252 249 244 243 243 238 237 239 237 241 241 238 244 250 234
179 184 185 185 174 188 222 231 235 231 244 252 249 254 258 258 255 247 241 242 246 247 245 246 249 253 256 258 260 260 262 258 252 248 244 242 240 237 232 233 236 238 225 230 235 238 241 239 239 245 247 244 245 248 248 241 238 238 236 239 242 246 237
197 196 208 221 223 216 221 237 249 253 244 237 239 241 243 248 243 237 240 243 249 250 248 244 245 247 250 255 259 263 266 267 264 260 258 254 252 250 246 240 239 241 237 228 220 223 231 233 238 242 244 248 251 251 249 251 246 233 221 226 236 240 240
200 206 210 210 212 224 227 229 234 240 242 240 239 244 247 240 247 249 250 253 256 260 255 244 248 251 252 255 257 256 262 263 264 262 255 248 244 242 243 240 241 242 237 232 226 226 232 237 239 244 245 247 249 247 248 242 240 240 233 227 227 232 233
212 214 211 212 222 228 232 237 238 228 243 244 248 247 246 245 250 256 257 253 258 262 261 248 247 249 250 251 251 251 253 254 257 258 256 246 240 237 235 233 233 240 241 240 232 226 231 236 244 243 242 245 246 248 250 251 241 237 237 236 233 233 231
215 221 218 230 238 240 236 237 241 236 254 265 264 260 262 263 258 254 254 256 250 257 260 251 247 247 246 246 241 243 246 249 255 255 257 249 248 244 244 243 240 236 237 237 235 231 230 230 237 241 244 246 248 248 251 247 250 240 235 237 236 236 233
227 239 254 261 263 272 274 276 278 274 266 266 269 270 266 265 261 250 246 251 255 259 260 251 241 243 244 244 243 237 243 254 256 253 255 255 251 248 250 247 249 252 252 245 235 230 229 229 241 239 243 244 246 247 244 247 244 246 245 241 239 237 244
230 237 253 264 270 270 277 287 281 278 275 270 273 273 269 268 268 261 257 257 259 258 258 257 248 241 242 246 244 240 239 249 246 251 254 260 257 248 246 248 245 246 248 253 252 239 229 226 236 237 234 237 238 242 240 243 241 240 247 246 248 237 234
249 260 260 270 279 285 282 280 285 285 285 283 280 278 272 271 271 271 262 258 256 255 252 259 258 246 247 246 244 239 248 252 259 261 264 263 265 267 262 256 254 248 242 242 241 243 242 235 232 235 236 233 235 239 242 245 243 244 246 248 247 243 235
261 269 282 283 285 279 275 274 276 281 279 279 281 281 283 280 280 276 269 259 261 264 267 272 272 260 244 245 247 247 254 260 259 269 270 269 269 265 259 259 257 254 250 252 251 247 246 247 245 243 242 244 246 245 243 247 245 243 243 246 248 247 239
286 291 286 285 285 284 284 285 282 281 282 282 280 282 281 278 275 276 275 271 268 269 266 267 266 273 270 267 268 267 267 276 276 269 268 269 267 266 265 263 261 258 250 247 248 249 250 249 251 251 252 250 250 249 250 249 249 250 248 244 244 244 238
293 291 287 289 288 287 289 288 287 283 283 281 283 282 278 275 275 277 279 279 271 266 265 268 275 283 294 303 301 292 286 279 274 267 269 268 268 265 265 260 258 258 259 260 260 258 256 252 250 251 249 248 247 248 247 246 244 244 246 244 243 241 239